Location: Camp Crooked Creek
(37.9149°N, 85.6607°W)
Time: 14:54:03
(UTC-04:00)

Amateur Radio Satellites - All Passes

Search period start: 30 October 2014 14:24
Search period end: 31 October 2014 14:24
Location: Camp Crooked Creek, 37.9149°N, 85.6607°W

Satellite Date Start Highest point End Downlink Frequencies (MHz)
Time Altitude Azimuth
Uribyol 2 30 Oct 14:30:49 14:35:37 39° 70° (ENE) 14:40:27 436.500 FM
ITAMSAT 1 30 Oct 14:38:22 14:43:16 43° 71° (ENE) 14:48:11 435.822 SSB
AO-Echo 30 Oct 14:43:54 14:48:47 62° 74° (ENE) 14:53:51 ?
Oscar 19 30 Oct 14:52:04 14:57:07 56° 259° (W) 15:02:10 437.125 CW, 437.150 USB
Saudisat 1A 30 Oct 15:00:24 15:03:46 21° 48° (NE) 15:07:06 436.775 MHz
AO-7 30 Oct 15:07:48 15:12:31 17° 51° (NE) 15:17:14 29.400 - 29.500 MHz
AO-27 30 Oct 15:25:23 15:30:33 66° 258° (WSW) 15:35:47 436.795 MHz FM
Gurwin Techsat 1B 30 Oct 15:34:33 15:39:50 77° 75° (ENE) 15:45:10 435.225 FM
Oscar 16 30 Oct 15:40:44 15:44:18 19° 267° (W) 15:47:54 437.025 USB, Beacon 2401.1428
TMSAT-1 30 Oct 15:41:41 15:46:56 66° 74° (ENE) 15:52:12 436.925 FM
UOSAT-12 30 Oct 15:58:53 16:00:29 12° 320° (NW) 16:02:05 437.025 FM, 437.400 FM
JAS-1B 30 Oct 16:07:09 16:10:33 16° 268° (W) 16:13:54 435.800 - 435.900 CW/SSB
Uribyol 2 30 Oct 16:11:03 16:15:10 23° 265° (W) 16:19:19 436.500 FM
ITAMSAT 1 30 Oct 16:19:01 16:22:54 21° 266° (W) 16:26:49 435.822 SSB
ISS 30 Oct 16:22:08 16:23:39 13° 19° (NNE) 16:25:11 145.800 FM
AO-Echo 30 Oct 16:25:36 16:27:59 13° 270° (W) 16:30:26 ?
Uosat F 30 Oct 16:35:06 16:39:25 30° 68° (ENE) 16:43:46 435.120 FM
Saudisat 1A 30 Oct 16:39:19 16:43:30 42° 245° (WSW) 16:47:39 436.775 MHz
AO-7 30 Oct 16:55:45 17:03:59 78° 70° (ENE) 17:12:17 29.400 - 29.500 MHz
Gurwin Techsat 1B 30 Oct 17:18:41 17:20:20 11° 270° (W) 17:21:59 435.225 FM
TMSAT-1 30 Oct 17:24:42 17:27:17 14° 269° (W) 17:29:53 436.925 FM
JAS-2 30 Oct 17:46:52 17:52:40 43° 68° (ENE) 17:59:13 435.800 - 435.900 CW/SSB, 435.910 FM
ISS 30 Oct 17:57:40 18:00:57 55° 37° (NE) 18:04:14 145.800 FM
Uosat F 30 Oct 18:13:48 18:18:07 29° 263° (W) 18:22:29 435.120 FM
KITSAT 1 30 Oct 18:22:34 18:23:50 10° 23° (NNE) 18:25:06 435.175 FM
Hamsat 30 Oct 18:26:05 18:30:08 50° 74° (ENE) 18:34:10 145.90 MHz
OPAL 30 Oct 18:40:23 18:45:04 41° 101° (E) 18:49:43 ?
AO-7 30 Oct 18:51:51 18:57:30 20° 267° (W) 19:03:11 29.400 - 29.500 MHz
AO-40 30 Oct 19:07:07 01:30:23 49° 182° (S) 05:06:08 Beacon 2401.320
JAS-2 30 Oct 19:32:36 19:37:53 30° 268° (W) 19:43:46 435.800 - 435.900 CW/SSB, 435.910 FM
ISS 30 Oct 19:35:32 19:37:18 14° 232° (SW) 19:39:04 145.800 FM
SO-67 30 Oct 19:55:26 19:58:50 65° 77° (ENE) 20:02:15 435.3500 MHz FM
Hamsat 30 Oct 20:04:51 20:06:20 12° 269° (W) 20:07:50 145.90 MHz
KITSAT 1 30 Oct 20:14:44 20:22:05 37° 49° (NE) 20:29:23 435.175 FM
RS-15 30 Oct 20:17:12 20:23:56 19° 100° (E) 20:30:33 29.354 - 29.394 USB, Beacon 29.352 USB
SO-50 30 Oct 20:18:18 20:22:11 23° 48° (NE) 20:26:04 436.795 FM
OPAL 30 Oct 20:19:59 20:23:39 21° 296° (WNW) 20:27:19 ?
HO-68 30 Oct 20:22:21 20:27:24 21° 58° (ENE) 20:32:28 435.675 MHz FM
STRAND 1 30 Oct 20:35:01 20:40:11 78° 103° (ESE) 20:45:19 ?
Oscar 10/S400 30 Oct 21:38:02 22:18:36 54° 204° (SSW) 08:06:20 145.825 - 145.975 CW/USB, Beacon 145.810 USB
SO-50 30 Oct 21:58:18 22:02:56 45° 245° (WSW) 22:07:34 436.795 FM
UKube-1 30 Oct 22:04:38 22:08:37 36° 71° (ENE) 22:12:37 145.840 MHz, 145.915 MHz
HO-68 30 Oct 22:07:14 22:14:22 73° 256° (WSW) 22:21:34 435.675 MHz FM
KITSAT 1 30 Oct 22:09:57 22:17:41 52° 249° (WSW) 22:25:23 435.175 FM
ZACube-1 30 Oct 22:13:09 22:16:13 18° 67° (ENE) 22:19:16 437.345 MHz
STRAND 1 30 Oct 22:16:37 22:18:40 12° 299° (WNW) 22:20:43 ?
RS-15 30 Oct 22:23:33 22:34:36 87° 119° (ESE) 22:45:34 29.354 - 29.394 USB, Beacon 29.352 USB
MaSat-1 30 Oct 22:28:56 22:32:14 25° 109° (ESE) 22:35:18 437.345 MHz
Oscar 11 30 Oct 22:39:56 22:44:15 85° 77° (ENE) 22:48:35 145.825 FM, Beacon 2401.500 USB
UOSAT-12 30 Oct 22:46:17 22:50:55 55° 56° (NE) 22:55:27 437.025 FM, 437.400 FM
FUNcube-1 30 Oct 22:54:41 22:59:04 50° 74° (ENE) 23:03:24 145.950 - 145.970 MHz USB
UKube-1 30 Oct 23:41:55 23:44:53 18° 266° (W) 23:47:53 145.840 MHz, 145.915 MHz
ZACube-1 30 Oct 23:48:02 23:52:18 40° 262° (W) 23:56:32 437.345 MHz
MaSat-1 31 Oct 00:04:36 00:07:35 21° 300° (WNW) 00:10:22 437.345 MHz
UOSAT-12 31 Oct 00:27:53 00:30:34 15° 252° (WSW) 00:33:13 437.025 FM, 437.400 FM
FUNcube-1 31 Oct 00:33:23 00:35:40 14° 268° (W) 00:37:56 145.950 - 145.970 MHz USB
RS-15 31 Oct 00:39:19 00:48:25 29° 324° (NW) 00:57:37 29.354 - 29.394 USB, Beacon 29.352 USB
JAS-1B 31 Oct 01:58:27 02:03:47 20° 94° (E) 02:09:40 435.800 - 435.900 CW/SSB
Oscar 16 31 Oct 02:14:16 02:17:48 19° 93° (E) 02:21:20 437.025 USB, Beacon 2401.1428
Sapphire 31 Oct 02:22:53 02:26:58 22° 106° (ESE) 02:31:04 437.095 MHz 1200 baud AX-25 AFSK
PCSat 31 Oct 02:43:34 02:48:31 38° 110° (ESE) 02:53:30 145.825 MHz
Uribyol 2 31 Oct 02:46:37 02:49:39 16° 92° (E) 02:52:39 436.500 FM
AO-Echo 31 Oct 02:53:29 02:57:48 25° 94° (E) 03:02:02 ?
ITAMSAT 1 31 Oct 02:54:06 02:57:31 17° 93° (E) 03:00:55 435.822 SSB
RS-15 31 Oct 03:00:23 03:06:11 15° 359° (N) 03:12:04 29.354 - 29.394 USB, Beacon 29.352 USB
Oscar 19 31 Oct 03:05:20 03:10:24 60° 101° (E) 03:15:27 437.125 CW, 437.150 USB
AO-27 31 Oct 03:40:17 03:45:23 51° 100° (E) 03:50:26 436.795 MHz FM
JAS-1B 31 Oct 03:47:25 03:54:35 75° 286° (WNW) 04:03:11 435.800 - 435.900 CW/SSB
Oscar 16 31 Oct 03:52:28 03:57:22 46° 288° (WNW) 04:02:14 437.025 USB, Beacon 2401.1428
Gurwin Techsat 1B 31 Oct 03:52:54 03:57:45 35° 97° (E) 04:02:34 435.225 FM
TMSAT-1 31 Oct 03:59:46 04:04:25 30° 96° (E) 04:09:01 436.925 FM
Sapphire 31 Oct 04:04:51 04:10:02 46° 303° (WNW) 04:15:15 437.095 MHz 1200 baud AX-25 AFSK
Uribyol 2 31 Oct 04:24:22 04:29:27 57° 287° (WNW) 04:34:30 436.500 FM
PCSat 31 Oct 04:27:19 04:31:58 29° 307° (NW) 04:36:40 145.825 MHz
AO-Echo 31 Oct 04:31:42 04:36:36 38° 290° (WNW) 04:41:26 ?
ITAMSAT 1 31 Oct 04:32:14 04:37:17 51° 288° (WNW) 04:42:17 435.822 SSB
Oscar 19 31 Oct 04:46:14 04:49:13 16° 297° (WNW) 04:52:12 437.125 CW, 437.150 USB
AO-7 31 Oct 05:00:05 05:07:02 29° 96° (E) 05:13:56 29.400 - 29.500 MHz
PANSAT 31 Oct 05:11:40 05:13:49 14° 167° (SSE) 05:15:58 not established
RS-15 31 Oct 05:15:01 05:24:09 28° 35° (NE) 05:33:31 29.354 - 29.394 USB, Beacon 29.352 USB
AO-27 31 Oct 05:20:54 05:24:28 19° 296° (WNW) 05:28:00 436.795 MHz FM
Gurwin Techsat 1B 31 Oct 05:33:08 05:37:32 27° 293° (WNW) 05:41:54 435.225 FM
TMSAT-1 31 Oct 05:39:38 05:44:15 31° 292° (WNW) 05:48:50 436.925 FM
JAS-1B 31 Oct 05:41:09 05:44:20 13° 301° (WNW) 05:47:44 435.800 - 435.900 CW/SSB
OPAL 31 Oct 05:53:26 05:58:29 63° 72° (ENE) 06:03:30 ?
STRAND 1 31 Oct 06:14:32 06:15:51 11° 60° (ENE) 06:17:10 ?
Uosat F 31 Oct 06:22:23 06:27:27 83° 285° (WNW) 06:32:29 435.120 FM
JAS-2 31 Oct 06:42:11 06:49:48 51° 98° (E) 06:57:06 435.800 - 435.900 CW/SSB, 435.910 FM
Saudisat 1A 31 Oct 06:43:30 06:47:52 76° 119° (ESE) 06:52:16 436.775 MHz
PANSAT 31 Oct 06:50:30 06:53:21 20° 180° (S) 06:56:12 not established
AO-7 31 Oct 06:52:02 07:00:09 59° 293° (WNW) 07:08:16 29.400 - 29.500 MHz
RS-15 31 Oct 07:26:59 07:38:16 86° 60° (ENE) 07:50:03 29.354 - 29.394 USB, Beacon 29.352 USB
OPAL 31 Oct 07:35:12 07:37:43 14° 266° (W) 07:40:15 ?
Hamsat 31 Oct 07:48:58 07:53:08 60° 285° (WNW) 07:57:19 145.90 MHz
STRAND 1 31 Oct 07:49:07 07:54:15 88° 256° (WSW) 07:59:26 ?
MaSat-1 31 Oct 08:15:08 08:16:56 18° 59° (ENE) 08:18:39 437.345 MHz
Saudisat 1A 31 Oct 08:25:46 08:27:57 13° 317° (NW) 08:30:08 436.775 MHz
JAS-2 31 Oct 08:27:36 08:34:26 34° 295° (WNW) 08:41:06 435.800 - 435.900 CW/SSB, 435.910 FM
PANSAT 31 Oct 08:30:42 08:32:53 15° 193° (SSW) 08:35:05 not established
AO-7 31 Oct 08:48:23 08:51:12 12° 313° (NW) 08:54:01 29.400 - 29.500 MHz
SO-67 31 Oct 08:53:01 08:56:28 79° 283° (WNW) 08:59:54 435.3500 MHz FM
HO-68 31 Oct 09:37:53 09:43:28 24° 94° (E) 09:49:00 435.675 MHz FM
RS-15 31 Oct 09:41:20 09:49:16 23° 259° (WSW) 09:57:29 29.354 - 29.394 USB, Beacon 29.352 USB
Oscar 11 31 Oct 10:30:23 10:33:15 17° 93° (E) 10:36:06 145.825 FM, Beacon 2401.500 USB
ISS 31 Oct 10:38:26 10:41:37 46° 136° (SE) 10:44:49 145.800 FM
KITSAT 1 31 Oct 10:41:59 10:48:37 29° 106° (ESE) 10:55:14 435.175 FM
Sapphire 31 Oct 11:12:29 11:15:36 15° 45° (NE) 11:18:42 437.095 MHz 1200 baud AX-25 AFSK
HO-68 31 Oct 11:24:29 11:31:32 60° 291° (WNW) 11:38:32 435.675 MHz FM
UKube-1 31 Oct 11:30:05 11:34:29 87° 103° (ESE) 11:38:50 145.840 MHz, 145.915 MHz
PCSat 31 Oct 11:33:24 11:37:42 23° 50° (NE) 11:41:58 145.825 MHz
ZACube-1 31 Oct 11:38:57 11:42:56 42° 99° (E) 11:46:52 437.345 MHz
Oscar 11 31 Oct 12:05:34 12:09:31 36° 288° (WNW) 12:13:28 145.825 FM, Beacon 2401.500 USB
SO-50 31 Oct 12:11:10 12:15:38 88° 301° (WNW) 12:20:16 436.795 FM
ISS 31 Oct 12:15:48 12:18:27 22° 332° (NNW) 12:21:07 145.800 FM
FUNcube-1 31 Oct 12:21:48 12:25:54 57° 285° (WNW) 12:29:57 145.950 - 145.970 MHz USB
KITSAT 1 31 Oct 12:35:32 12:43:28 59° 303° (WNW) 12:51:27 435.175 FM
Sapphire 31 Oct 12:54:16 12:59:44 85° 244° (WSW) 13:05:09 437.095 MHz 1200 baud AX-25 AFSK
UOSAT-12 31 Oct 12:56:27 13:00:09 24° 111° (ESE) 13:03:56 437.025 FM, 437.400 FM
PCSat 31 Oct 13:16:08 13:21:22 50° 248° (WSW) 13:26:33 145.825 MHz
ZACube-1 31 Oct 13:16:40 13:18:57 15° 294° (WNW) 13:21:13 437.345 MHz
HO-68 31 Oct 13:16:50 13:17:45 10° 309° (NW) 13:18:40 435.675 MHz FM
Oscar 16 31 Oct 13:29:33 13:33:36 24° 66° (ENE) 13:37:39 437.025 USB, Beacon 2401.1428
SO-50 31 Oct 13:55:04 13:56:55 12° 320° (NW) 13:58:46 436.795 FM
Uribyol 2 31 Oct 14:02:37 14:06:28 21° 65° (ENE) 14:10:20 436.500 FM
AO-Echo 31 Oct 14:04:51 14:08:55 26° 67° (ENE) 14:13:06 ?
ITAMSAT 1 31 Oct 14:10:19 14:14:23 24° 66° (ENE) 14:18:27 435.822 SSB
